| time (UTC) | temp F | wind direction | speed MPH | gust MPH | rain 1hr in | rain 24hr in | rain mn in | humidity % | barometer mb |
| 20260510231520 | 66 | 13 | 1.0 | 5.0 | 0.01 | 0.22 | 0.22 | 87 | 994.6 |
| 20260510230029 | 66 | 98 | 0.0 | 4.0 | 0.01 | 0.22 | 0.22 | 87 | 995.1 |
| 20260510224617 | 66 | 3 | 1.0 | 4.0 | 0.00 | 0.21 | 0.21 | 86 | 995.5 |
| 20260510223016 | 66 | 58 | 2.0 | 10.0 | 0.00 | 0.21 | 0.21 | 86 | 995.6 |
| 20260510221520 | 66 | 64 | 1.0 | 6.0 | 0.00 | 0.21 | 0.21 | 87 | 995.0 |
| 20260510220015 | 66 | 25 | 3.0 | 9.0 | 0.00 | 0.21 | 0.21 | 86 | 995.1 |
| 20260510214515 | 67 | 21 | 3.0 | 13.0 | 0.00 | 0.21 | 0.21 | 86 | 995.3 |
| 20260510213014 | 67 | 1 | 5.0 | 12.0 | 0.08 | 0.21 | 0.21 | 87 | 995.8 |
| 20260510211516 | 67 | 25 | 4.0 | 11.0 | 0.13 | 0.21 | 0.21 | 87 | 996.3 |
| 20260510210014 | 67 | 359 | 3.0 | 12.0 | 0.14 | 0.21 | 0.21 | 87 | 995.5 |
| 20260510204512 | 67 | 41 | 2.0 | 9.0 | 0.14 | 0.21 | 0.21 | 87 | 995.8 |
| 20260510203004 | 67 | 318 | 2.0 | 9.0 | 0.06 | 0.13 | 0.13 | 86 | 996.2 |
| 20260510201501 | 69 | 37 | 4.0 | 8.0 | 0.02 | 0.07 | 0.07 | 84 | 995.5 |
| 20260510200121 | 69 | 20 | 2.0 | 7.0 | 0.02 | 0.07 | 0.07 | 83 | 995.3 |
| 20260510194612 | 69 | 34 | 0.0 | 7.0 | 0.02 | 0.07 | 0.07 | 83 | 995.4 |
| 20260510193118 | 70 | 7 | 3.0 | 6.0 | 0.02 | 0.07 | 0.07 | 80 | 995.3 |
| 20260510191557 | 71 | 51 | 2.0 | 10.0 | 0.00 | 0.05 | 0.05 | 76 | 995.3 |
| 20260510190056 | 70 | 346 | 1.0 | 5.0 | 0.00 | 0.05 | 0.05 | 78 | 995.0 |
| 20260510184601 | 69 | 84 | 1.0 | 6.0 | 0.00 | 0.05 | 0.05 | 80 | 995.0 |
| 20260510183054 | 69 | 102 | 3.0 | 7.0 | 0.00 | 0.05 | 0.05 | 81 | 994.8 |
| 20260510181553 | 68 | 139 | 2.0 | 11.0 | 0.04 | 0.05 | 0.05 | 82 | 994.6 |
| 20260510180051 | 68 | 42 | 3.0 | 11.0 | 0.05 | 0.05 | 0.05 | 85 | 994.6 |
| 20260510174556 | 67 | 56 | 1.0 | 7.0 | 0.05 | 0.05 | 0.05 | 87 | 994.5 |
| 20260510173050 | 66 | 21 | 1.0 | 7.0 | 0.05 | 0.05 | 0.05 | 86 | 994.3 |
| 20260510171546 | 66 | 1 | 3.0 | 12.0 | 0.01 | 0.01 | 0.01 | 84 | 994.8 |
| 20260510170042 | 67 | 338 | 3.0 | 19.0 | 0.00 | 0.00 | 0.00 | 80 | 995.1 |
| 20260510164543 | 69 | 51 | 9.0 | 19.0 | 0.00 | 0.00 | 0.00 | 72 | 995.5 |
| 20260510163035 | 74 | 15 | 8.0 | 20.0 | 0.00 | 0.00 | 0.00 | 61 | 994.8 |
| 20260510161533 | 79 | 68 | 0.0 | 3.0 | 0.00 | 0.00 | 0.00 | 63 | 993.3 |
| 20260510160035 | 79 | 125 | 2.0 | 10.0 | 0.00 | 0.00 | 0.00 | 61 | 992.6 |
| 20260510154530 | 78 | 108 | 3.0 | 10.0 | 0.00 | 0.00 | 0.00 | 61 | 991.6 |
| 20260510153029 | 77 | 144 | 3.0 | 13.0 | 0.00 | 0.00 | 0.00 | 63 | 991.3 |
| 20260510151526 | 76 | 113 | 4.0 | 14.0 | 0.00 | 0.00 | 0.00 | 64 | 991.5 |
| 20260510150020 | 74 | 63 | 4.0 | 13.0 | 0.00 | 0.00 | 0.00 | 64 | 991.6 |
| 20260510144520 | 73 | 181 | 2.0 | 8.0 | 0.00 | 0.00 | 0.00 | 69 | 991.5 |
| 20260510143016 | 71 | 150 | 4.0 | 12.0 | 0.00 | 0.00 | 0.00 | 71 | 992.0 |
| 20260510141513 | 70 | 219 | 1.0 | 8.0 | 0.00 | 0.00 | 0.00 | 72 | 992.3 |
| 20260510140011 | 70 | 128 | 4.0 | 8.0 | 0.00 | 0.00 | 0.00 | 73 | 992.5 |
| 20260510134511 | 70 | 105 | 3.0 | 7.0 | 0.00 | 0.00 | 0.00 | 74 | 992.7 |
| 20260510133008 | 70 | 101 | 2.0 | 8.0 | 0.00 | 0.00 | 0.00 | 74 | 992.9 |
| 20260510131505 | 69 | 104 | 2.0 | 6.0 | 0.00 | 0.00 | 0.00 | 75 | 993.0 |
| 20260510130003 | 69 | 79 | 1.0 | 4.0 | 0.00 | 0.00 | 0.00 | 76 | 992.6 |
| 20260510124602 | 69 | 117 | 1.0 | 10.0 | 0.00 | 0.00 | 0.00 | 77 | 992.2 |
| 20260510123058 | 69 | 102 | 2.0 | 5.0 | 0.00 | 0.00 | 0.00 | 77 | 992.1 |
| 20260510121557 | 68 | 123 | 1.0 | 4.0 | 0.00 | 0.00 | 0.00 | 78 | 992.0 |
| 20260510120053 | 68 | 108 | 3.0 | 5.0 | 0.00 | 0.00 | 0.00 | 78 | 991.8 |
| 20260510114607 | 68 | 167 | 1.0 | 4.0 | 0.00 | 0.00 | 0.00 | 78 | 991.6 |
| 20260510113056 | 68 | 120 | 2.0 | 8.0 | 0.00 | 0.00 | 0.00 | 78 | 991.7 |
| 20260510111548 | 68 | 77 | 2.0 | 6.0 | 0.00 | 0.00 | 0.00 | 79 | 991.7 |
| 20260510110052 | 68 | 131 | 3.0 | 9.0 | 0.00 | 0.00 | 0.00 | 78 | 991.7 |
| 20260510104554 | 68 | 109 | 2.0 | 9.0 | 0.00 | 0.00 | 0.00 | 77 | 991.5 |
| 20260510103042 | 68 | 103 | 4.0 | 9.0 | 0.00 | 0.00 | 0.00 | 76 | 991.2 |
| 20260510101540 | 68 | 82 | 3.0 | 11.0 | 0.00 | 0.00 | 0.00 | 76 | 991.3 |
| 20260510100055 | 70 | 76 | 2.0 | 8.0 | 0.00 | 0.00 | 0.00 | 72 | 991.5 |
| 20260510094537 | 71 | 356 | 2.0 | 8.0 | 0.00 | 0.00 | 0.00 | 72 | 991.3 |
| 20260510093031 | 71 | 101 | 2.0 | 13.0 | 0.00 | 0.00 | 0.00 | 74 | 990.7 |
| 20260510091528 | 71 | 57 | 4.0 | 18.0 | 0.00 | 0.00 | 0.00 | 74 | 990.8 |
| 20260510090027 | 72 | 328 | 5.0 | 23.0 | 0.00 | 0.00 | 0.00 | 73 | 990.8 |
| 20260510084526 | 74 | 1 | 0.0 | 12.0 | 0.00 | 0.00 | 0.00 | 81 | 990.1 |
| 20260510083021 | 75 | 358 | 0.0 | 4.0 | 0.00 | 0.00 | 0.00 | 80 | 989.6 |
| 20260510081518 | 75 | 22 | 2.0 | 7.0 | 0.00 | 0.00 | 0.00 | 80 | 989.7 |
| 20260510080020 | 74 | 360 | 0.0 | 3.0 | 0.00 | 0.00 | 0.00 | 80 | 989.6 |
| 20260510074516 | 75 | 117 | 0.0 | 0.0 | 0.00 | 0.00 | 0.00 | 79 | 988.5 |
| 20260510073014 | 75 | 117 | 0.0 | 4.0 | 0.00 | 0.00 | 0.00 | 78 | 988.3 |
| 20260510071514 | 75 | 106 | 0.0 | 3.0 | 0.00 | 0.00 | 0.00 | 77 | 988.3 |
| 20260510070013 | 76 | 116 | 1.0 | 6.0 | 0.00 | 0.00 | 0.00 | 76 | 987.9 |
| 20260510064509 | 76 | 104 | 6.0 | 12.0 | 0.00 | 0.00 | 0.00 | 75 | 987.9 |
| 20260510063010 | 77 | 19 | 4.0 | 16.0 | 0.00 | 0.00 | 0.00 | 73 | 989.2 |
| 20260510061505 | 77 | 274 | 2.0 | 14.0 | 0.00 | 0.00 | 0.00 | 69 | 990.2 |
| 20260510060002 | 77 | 306 | 4.0 | 11.0 | 0.00 | 0.00 | 0.00 | 67 | 989.8 |
| 20260510054604 | 76 | 82 | 0.0 | 2.0 | 0.00 | 0.00 | 0.00 | 67 | 987.7 |
| 20260510053053 | 77 | 94 | 0.0 | 3.0 | 0.00 | 0.00 | 0.00 | 66 | 986.9 |
| 20260510051552 | 77 | 129 | 1.0 | 3.0 | 0.00 | 0.00 | 0.00 | 65 | 987.1 |
| 20260510050053 | 77 | 117 | 1.0 | 4.0 | 0.00 | 0.00 | 0.00 | 64 | 986.8 |
| 20260510044555 | 78 | 110 | 2.0 | 6.0 | 0.00 | 0.00 | 0.00 | 64 | 986.4 |
| 20260510043048 | 78 | 111 | 1.0 | 6.0 | 0.00 | 0.00 | 0.00 | 64 | 986.3 |
| 20260510041553 | 78 | 108 | 2.0 | 5.0 | 0.00 | 0.00 | 0.00 | 64 | 986.5 |
| 20260510040046 | 78 | 142 | 1.0 | 6.0 | 0.00 | 0.00 | 0.00 | 63 | 986.7 |
| 20260510034548 | 78 | 143 | 1.0 | 4.0 | 0.00 | 0.00 | 0.00 | 62 | 986.7 |
| 20260510033058 | 78 | 148 | 1.0 | 5.0 | 0.00 | 0.00 | 0.00 | 61 | 986.9 |
| 20260510031544 | 79 | 123 | 0.0 | 3.0 | 0.00 | 0.00 | 0.00 | 60 | 986.9 |
| 20260510030044 | 80 | 73 | 1.0 | 3.0 | 0.00 | 0.00 | 0.00 | 58 | 986.9 |
| 20260510024545 | 81 | 124 | 2.0 | 4.0 | 0.00 | 0.00 | 0.00 | 56 | 986.9 |
| 20260510023043 | 81 | 113 | 2.0 | 5.0 | 0.00 | 0.00 | 0.00 | 55 | 986.8 |
| 20260510021542 | 81 | 82 | 2.0 | 4.0 | 0.00 | 0.00 | 0.00 | 54 | 986.5 |
| 20260510020041 | 82 | 120 | 2.0 | 5.0 | 0.00 | 0.00 | 0.00 | 54 | 986.4 |
| 20260510014540 | 82 | 127 | 2.0 | 5.0 | 0.00 | 0.00 | 0.00 | 54 | 986.3 |
| 20260510013042 | 83 | 96 | 2.0 | 6.0 | 0.00 | 0.00 | 0.00 | 54 | 986.1 |
| 20260510011538 | 83 | 100 | 2.0 | 6.0 | 0.00 | 0.00 | 0.00 | 54 | 985.8 |
| 20260510010037 | 84 | 120 | 2.0 | 5.0 | 0.00 | 0.00 | 0.00 | 56 | 985.6 |
| 20260510004537 | 85 | 84 | 2.0 | 7.0 | 0.00 | 0.00 | 0.00 | 55 | 985.5 |
| 20260510003051 | 85 | 25 | 2.0 | 5.0 | 0.00 | 0.00 | 0.00 | 55 | 985.5 |
| 20260510001540 | 86 | 328 | 2.0 | 5.0 | 0.00 | 0.00 | 0.00 | 54 | 985.4 |
| 20260510000036 | 87 | 105 | 2.0 | 7.0 | 0.00 | 0.00 | 0.00 | 54 | 985.5 |
| 20260509234537 | 88 | 2 | 2.0 | 4.0 | 0.00 | 0.00 | 0.00 | 51 | 985.6 |
| 20260509233030 | 88 | 323 | 1.0 | 3.0 | 0.00 | 0.00 | 0.00 | 45 | 985.7 |